User: anonymous   Login
Location: Unspecified
(0.0000°N, 0.0000°E)
Time: 18:08:04
(UTC+00:00)
Language:

NOSS 7 (E) - Orbit

View from above orbital plane
View from above orbital plane
View from above satellite
View from above satellite

Ground track
Ground track

The orbit data is extracted from the following two-line orbital elements,

1 16624U 86014E   24106.18212197  .00007457  00000-0  63260-3 0  9995
2 16624  63.2968 105.8585 0877191 101.4924 268.5828 13.58755419240554
Epoch (UTC): 15 April 2024 04:22:15
Eccentricity: 0.0877191
inclination: 63.2968°
perigee height: 389 km
apogee height: 1691 km
right ascension of ascending node: 105.8585°
argument of perigee: 101.4924°
revolutions per day: 13.58755419
mean anomaly at epoch: 268.5828°
orbit number at epoch: 24055

The dashed part of the orbit path shows where the satellite is in the earth's shadow,  

DLR